Regional Weather Roundup
Issued by NWS

Home | Current Version | Previous Version | Text Only | Print | Product List | Glossary Off
Versions: 1 2 3 4 5 6 7 8 9 10 11 12 13 14 15 16 17 18 19 20 21 22 23 24 25 26 27 28 29 30 31 32 33 34 35 36 37 38 39 40 41 42 43 44 45 46 47 48 49 50

000
ASUS43 KTOP 271408
RWRKS

WEATHER ROUNDUP FOR KANSAS
NATIONAL WEATHER SERVICE GOODLAND KS
900 AM CDT SAT AUG 27 2016

NOTE:  "FAIR" INDICATES FEW OR NO CLOUDS BELOW 12,000 FEET WITH NO
SIGNIFICANT WEATHER AND/OR OBSTRUCTIONS TO VISIBILITY.

KSZ001>006-013>018-027>032-041>047-271500-
NORTHWEST KANSAS

CITY           SKY/WX    TMP DP  RH WIND       PRES   REMARKS
GOODLAND       FOG       58  57  97 S9        30.08R VSB 1/2
HAYS           SUNNY     64  55  72 E5        30.05S
HILL CITY      SUNNY     63  60  90 NE6       30.07S
RUSSELL        MOSUNNY   65  62  90 N7        30.04R
$$

KSZ061>065-074>080-084>089-271500-
SOUTHWEST KANSAS

CITY           SKY/WX    TMP DP  RH WIND       PRES   REMARKS
DODGE CITY     SUNNY     67  60  78 SE9       30.07R
ELKHART          N/A     66  58  75 SW8         N/A
GARDEN CITY    SUNNY     65  59  81 SE15      30.06R
GREAT BEND     SUNNY     66  57  72 E5        30.04S
LIBERAL        SUNNY     70  61  73 SE10      30.08S
PRATT          CLOUDY    65  61  85 SE6       30.05S
$$

KSZ066>073-081>083-090>101-271500-
SOUTHEAST KANSAS

CITY           SKY/WX    TMP DP  RH WIND       PRES   REMARKS
CHANUTE        CLOUDY    75  72  90 S12       30.06S
COFFEYVILLE    PTSUNNY   75  72  90 S6        30.07R
HUTCHINSON     MOSUNNY   71  65  81 S7        30.03S
MEDICINE LODGE   N/A     69  65  86 E5        30.06R
NEWTON         SUNNY     71  66  84 SE13      30.04F
PARSONS        MOSUNNY   74  72  93 S7        30.08R
WICHITA INTL   MOSUNNY   73  68  84 E12       30.03F
WICHITA JABRA  SUNNY     72  69  90 E9        30.04F
WICHITA MCCONL SUNNY     73  68  86 SE9       30.03F
WINFIELD       SUNNY     73  69  87 SE9       30.05F
$$

KSZ007>012-019>026-033>040-048>060-102>105-271500-
NORTHEAST KANSAS

CITY           SKY/WX    TMP DP  RH WIND       PRES   REMARKS
CONCORDIA      MOSUNNY   65  64  97 NW6       30.05R
EMPORIA        MOSUNNY   72  69  90 S12       30.04R
LAWRENCE       MOSUNNY   71  69  93 SE7       30.03F
MANHATTAN      SUNNY     70  66  87 CALM      30.03R
MARYSVILLE     PTSUNNY   68  64  88 SW5       30.03F
OLATHE IND     MOSUNNY   73  68  84 SE7       30.05F
OLATHE EXE     MOSUNNY   73  70  90 S7        30.04F
SALINA         MOSUNNY   68  64  87 S7        30.04S
TOPEKA BILLARD SUNNY     71  68  90 SE7       30.02S
TOPEKA FORBES  SUNNY     72  66  81 SE7       30.02S
$$




USA.gov is the U.S. government's official web portal to all federal, state and local government web resources and services.